STARLINK-33761, 63455

Orbit data source: Space-Track

STARLINK-33761, 63455 is a payload satellite owned by SpaceX/Seattle (US) in LEO that was launched on Fri, 04 Apr 2025 UTC via an FALCON 9 launch vehicle from the Air Force Western Test Range (AFWTR). Payload-class satellites include a variety of spacecraft equipped with specific instruments for various scientific and technological missions. These include communications satellites like Starlink; space stations such as the ISS; scientific satellites like the Hubble; Earth observation satellites from companies like Planet Labs, Umbra, and HawkEye 360; GPS; miniature CubeSats for education and research; and military/defense satellites.

Loading next visibility...
Identifier
63455, 2025-069Y
Orbit
LEO
Country
Flag of USUS
Related business
Manufacturer
SpaceX/Seattle
Mission
Operational Commercial Communications
Bus & Motor
STARLINK V2MO, Unknown motor
Mass
575 kg wet, ~530 kg dry
Launch date (UTC)
2025-04-04 (8 months ago)
Launch vehicle
FALCON 9
Launch site
Air Force Western Test Range (AFWTR)
Object type
Payload
Rocket body
Debris
Shape & HBR
Box + 2 Pan, 17.7 m
Radar Cross Section
36.964 m², Large (>1 m²)

Expand to show TLE details & history
Last TLE update: 21 hours ago

TLE from 21 hours ago
0 STARLINK-33761
1 63455U 25069Y   25348.82388044  .00016621  00000-0  57211-3 0  9999
2 63455  53.1568 176.4957 0001061 101.8292 258.2828 15.30195835 40417
Epoch: 2025-12-14T19:46Z
TLE epoch observation values (Epoch: 2025-12-14T19:46:23.270Z)
Latitude
0.00002°
Longitude
156.1675°
Altitude
476.275 km
Speed
7.629 km/s
True Right ascension
11h 45m 58s
True Declination
0° 00' 00"
Sunlit
Object was in daylight at epoch
Visualization orbit readout
Latitude
Unknown
Longitude
Unknown
Altitude
Unknown
Speed
Unknown
Apparent Right ascension
Unknown
Apparent Declination
Unknown
Sunlit
N/A
Visualization observer readout
Local Sidereal Time
15:09:06
Azimuth
Unknown
Elevation
Unknown
Doppler factor
Unknown
Orbital elements
Apogee altitude
476.212 km
Perigee altitude
474.757 km
Semi-major axis
6,853.621 km
Eccentricity
0.00011
Inclination
53.1568°
RAAN
176.4957°
Arg. of periapsis
101.8292°
True anomaly
258.2709°
Mean anomaly
258.2828°
Eccentric anomaly
258.27685°
Mean motion
3.82528 °/min
Orbital period
94.11 mins
BSTAR
0.00057211
Loading maneuver chart data...
Computing Atmospheric mass density...
Loading historical data...
Loading historical data...
Loading historical data...
Loading historical data...
Loading historical data...
Loading historical data...
Loading historical data...

Documentation

Showing up to 5 results
|